Waarnemingen

Advertentie
Mijn weer
Katterjakk A, Zweden (2019): temperatuur & dauwpunt: 08.08.2018 08:00:00 - 14.08.2018 08:00:00 (CEST)Katterjakk A, Zweden (2019): windsnelheid & windstoten: 08.08.2018 08:00:00 - 14.08.2018 08:00:00 (CEST)Katterjakk A, Zweden (2019): windrichting: 08.08.2018 08:00:00 - 14.08.2018 08:00:00 (CEST)Katterjakk A, Zweden (2019): luchtdruk: 08.08.2018 08:00:00 - 14.08.2018 08:00:00 (CEST)Katterjakk A, Zweden (2019): zicht: 08.08.2018 08:00:00 - 14.08.2018 08:00:00 (CEST)Katterjakk A, Zweden (2019): neerslag: 08.08.2018 08:00:00 - 14.08.2018 08:00:00 (CEST)
Datum & Tijd tt [°C] td [°C] ff [km/u] ff [kn] fx [km/u] fx [kn] dd ppp [hPa] vv [km] rr [mm]
14.08.2018 08:00:00 6,3 3,6 11 6 24 13 W 1009,8 50 0,0
14.08.2018 07:00:00 5,8 3,6 14 8 20 11 WZW 1009,6 50 0,0
14.08.2018 06:00:00 5,8 4,1 10 5 17 9 W 1009,6 50 0,1
14.08.2018 05:00:00 5,7 4,0 10 5 18 10 W 1009,5 15 0,0
14.08.2018 04:00:00 5,5 4,0 9 5 19 11 W 1009,4 13 0,0
14.08.2018 03:00:00 5,7 3,5 11 6 19 11 W 1009,1 50 0,0
14.08.2018 02:00:00 5,7 3,9 8 4 18 10 W 1008,9 49 0,0
14.08.2018 01:00:00 6,0 3,7 6 4 16 9 W 1008,7 40 0,0
14.08.2018 00:00:00 6,0 3,8 8 4 23 12 W 1008,3 50 0,0
13.08.2018 23:00:00 5,9 3,7 7 4 23 12 W 1008,3 50 0,0
13.08.2018 22:00:00 5,8 4,1 11 6 22 12 W 1008,1 50 0,0
13.08.2018 21:00:00 6,0 4,6 10 5 21 11 NW 1007,8 50 0,0
13.08.2018 20:00:00 6,2 4,7 8 4 22 12 WNW 1007,4 50 0,1
13.08.2018 19:00:00 6,7 4,2 10 6 25 13 NW 1007,1 50 0,0
13.08.2018 18:00:00 6,8 3,6 12 7 25 13 WNW 1007,1 35 0,0
13.08.2018 17:00:00 7,1 4,2 16 9 30 16 W 1006,9 37 0,1
13.08.2018 16:00:00 6,4 4,6 18 10 30 16 WNW 1006,9 9 0,2
13.08.2018 15:00:00 7,0 4,1 20 11 30 16 WNW 1006,3 27 0,0
13.08.2018 14:00:00 7,1 4,9 15 8 27 15 WNW 1006,1 50 0,0
13.08.2018 13:00:00 6,6 4,9 16 9 27 14 NNW 1005,9 44 0,2
13.08.2018 12:00:00 6,7 5,2 11 6 27 14 NW 1005,4 15 0,1
13.08.2018 11:00:00 6,8 5,4 16 9 29 16 WNW 1005,3 42 0,4
13.08.2018 10:00:00 6,3 5,4 11 6 31 17 WNW 1005,1 4,1 0,3
13.08.2018 09:00:00 6,3 5,7 7 4 31 17 WNW 1004,8 4,4 0,9
13.08.2018 08:00:00 6,5 5,1 17 9 28 15 WNW 1004,3 12 1,0
13.08.2018 07:00:00 6,4 5,8 9 5 29 15 WNW 1004,2 2,6 1,0
13.08.2018 06:00:00 6,5 5,8 13 7 29 15 WNW 1004,0 10 0,0
13.08.2018 05:00:00 6,7 5,6 11 6 26 14 WNW 1003,9 50 0,0
13.08.2018 04:00:00 6,7 6,1 15 8 26 14 W 1003,7 9 0,0
13.08.2018 03:00:00 6,8 6,1 14 8 26 14 NW 1003,5 19 0,0
13.08.2018 02:00:00 7,2 6,0 15 8 24 13 NW 1003,2 40 0,0
13.08.2018 01:00:00 7,5 6,0 14 8 23 12 WNW 1003,0 50 0,0
13.08.2018 00:00:00 7,7 6,0 13 7 26 14 WNW 1002,8 50 0,0
12.08.2018 23:00:00 8,1 5,9 16 8 31 17 WNW 1002,5 50 0,0
12.08.2018 22:00:00 8,1 6,4 16 9 32 17 W 1002,4 50 0,0
12.08.2018 21:00:00 8,2 7,1 19 11 41 22 WNW 1002,2 14 0,3
12.08.2018 20:00:00 8,6 7,7 21 12 41 22 W 1001,8 3,7 0,4
12.08.2018 19:00:00 9,0 7,8 26 14 39 21 WNW 1001,4 5 0,3
12.08.2018 18:00:00 9,5 8,6 10 6 22 12 W 1001,1 7 0,1
12.08.2018 17:00:00 9,7 8,8 6 3 22 12 W 1001,1 11 0,0
12.08.2018 16:00:00 9,2 8,6 13 7 27 15 NW 1001,2 6 0,0
12.08.2018 15:00:00 9,2 8,4 11 6 29 15 WNW 1001,0 4,9 0,1
12.08.2018 14:00:00 9,2 8,6 9 5 29 15 WNW 1000,8 3,4 0,1
12.08.2018 13:00:00 9,3 8,8 14 8 25 14 NW 1000,4 3,0 0,3
12.08.2018 12:00:00 10,2 8,8 10 5 25 14 WNW 1000,1 42 0,3
12.08.2018 11:00:00 9,6 9,0 11 6 23 13 NW 999,8 2,5 0,6
12.08.2018 10:00:00 10,0 9,4 11 6 20 11 WNW 999,3 3,9 0,7
12.08.2018 09:00:00 9,4 8,9 7 4 20 11 NW 999,3 3,2 0,0
12.08.2018 08:00:00 9,2 8,6 14 7 20 11 NW 999,1 5 0,0
12.08.2018 07:00:00 9,1 8,6 9 5 21 11 NW 998,9 3,5 0,2
12.08.2018 06:00:00 8,9 8,4 10 5 21 11 W 998,8 3,7 1,2
12.08.2018 05:00:00 8,9 8,3 8 4 20 11 W 998,7 8 0,5
12.08.2018 04:00:00 9,1 8,2 11 6 21 11 W 998,8 16 0,0
12.08.2018 03:00:00 9,1 8,2 10 5 21 11 ZW 998,9 50 0,1
12.08.2018 02:00:00 9,2 8,3 8 4 31 17 W 998,9 24 1,7
12.08.2018 01:00:00 9,4 8,6 9 5 33 18 WNW 998,8 15 0,7
12.08.2018 00:00:00 9,5 8,9 20 11 34 19 WNW 998,2 10 1,0
11.08.2018 23:00:00 10,6 9,8 23 13 34 19 WNW 997,3 11 0,6
11.08.2018 22:00:00 11,6 8,5 16 9 33 18 ZW 996,2 50 0,0
11.08.2018 21:00:00 11,7 9,1 22 12 33 18 WZW 995,9 40 0,0
11.08.2018 20:00:00 11,6 9,7 13 7 31 17 WZW 995,6 15 0,1
11.08.2018 19:00:00 12,0 9,6 13 7 26 14 WZW 995,3 40 1,3
11.08.2018 18:00:00 12,1 9,8 10 5 25 14 W 994,9 27 0,0
11.08.2018 17:00:00 12,3 10,7 10 6 25 14 NW 994,3 41 0,0
11.08.2018 16:00:00 12,3 10,0 18 10 24 13 NW 993,5 28 0,5
11.08.2018 15:00:00 13,5 10,1 9 5 29 16 NNW 992,8 27 0,1
11.08.2018 14:00:00 13,7 10,9 14 8 29 16 ONO 992,2 41 0,0
11.08.2018 13:00:00 13,7 12,4 17 9 33 18 ONO 992,3 37 0,0
11.08.2018 12:00:00 14,6 12,1 16 9 36 20 NO 992,4 50 0,0
11.08.2018 11:00:00 14,7 12,2 21 11 36 20 NNW 992,5 42 0,0
11.08.2018 10:00:00 15,5 11,1 7 4 36 20 NNW 992,8 47 0,0
11.08.2018 09:00:00 12,9 11,0 23 12 36 20 O 994,2 49 0,1
11.08.2018 08:00:00 11,7 10,4 8 5 36 19 NO 995,5 9 0,3
11.08.2018 07:00:00 11,5 9,9 18 10 36 19 ONO 996,0 50 0,0
11.08.2018 06:00:00 11,3 9,6 20 11 40 22 ONO 997,4 50 0,0
11.08.2018 05:00:00 10,8 9,4 22 12 40 22 ONO 998,6 50 0,0
11.08.2018 04:00:00 10,5 9,4 27 15 50 27 O 999,8 50 0,0
11.08.2018 03:00:00 10,8 8,7 19 11 59 32 O 1000,6 50 0,0
11.08.2018 02:00:00 10,7 9,0 29 16 59 32 O 1001,5 50 0,0
11.08.2018 01:00:00 10,4 9,0 36 20 59 32 O 1003,0 31 0,2
11.08.2018 00:00:00 10,6 8,2 34 19 51 27 ONO 1004,0 46 0,0
10.08.2018 23:00:00 10,5 7,9 26 14 45 24 O 1005,6 21 0,2
10.08.2018 22:00:00 10,5 7,2 23 12 49 26 O 1006,6 50 0,0
10.08.2018 21:00:00 10,9 7,0 17 9 53 28 O 1007,8 50 0,7
10.08.2018 20:00:00 12,0 7,3 28 15 53 28 O 1008,0 50 0,0
10.08.2018 19:00:00 12,7 7,6 19 10 33 18 O 1008,9 50 0,0
10.08.2018 18:00:00 13,9 7,2 9 5 36 19 ZZO 1009,6 46 0,0
10.08.2018 17:00:00 14,3 5,9 19 10 37 20 O 1010,1 47 0,0
10.08.2018 16:00:00 14,2 5,8 23 12 37 20 O 1011,1 50 0,0
10.08.2018 15:00:00 14,9 5,9 23 12 31 17 O 1011,6 43 0,0
10.08.2018 14:00:00 14,3 6,1 13 7 22 12 ONO 1012,6 46 0,0
10.08.2018 13:00:00 13,9 5,5 10 5 15 8 NO 1013,4 41 0,0
10.08.2018 12:00:00 14,5 6,8 7 4 14 8 NO 1013,9 48 0,0
10.08.2018 11:00:00 13,4 6,3 5 3 14 8 N 1014,4 44 0,0
10.08.2018 10:00:00 12,9 7,3 8 4 13 7 N 1014,8 37 0,0
10.08.2018 09:00:00 12,2 6,9 3 2 15 8 NW 1014,7 46 0,0
10.08.2018 08:00:00 11,2 7,3 4 2 15 8 NO 1015,0 37 0,0
10.08.2018 07:00:00 10,8 7,3 8 4 12 7 NNW 1015,3 38 0,0
10.08.2018 06:00:00 9,9 7,3 7 4 16 8 NW 1015,2 41 0,0
10.08.2018 05:00:00 9,6 6,9 9 5 16 8 WZW 1015,2 46 0,0
10.08.2018 04:00:00 9,0 7,3 7 4 20 11 WZW 1015,1 41 0,0
10.08.2018 03:00:00 9,5 6,8 4 2 28 15 WNW 1014,4 50 0,0
10.08.2018 02:00:00 9,5 6,6 11 6 28 15 W 1013,6 45 0,0
10.08.2018 01:00:00 10,2 7,4 17 9 24 13 W 1013,0 40 0,0
10.08.2018 00:00:00 9,7 8,3 3 2 24 13 ZZO 1012,8 35 0,0
09.08.2018 23:00:00 10,5 8,4 5 3 27 15 NW 1012,4 37 0,0
09.08.2018 22:00:00 10,9 8,8 13 7 32 17 NW 1011,4 32 0,0
09.08.2018 21:00:00 11,4 9,3 19 11 32 17 WNW 1010,5 31 0,0
09.08.2018 20:00:00 11,8 9,4 19 11 33 18 WNW 1009,2 35 0,0
09.08.2018 19:00:00 12,2 9,8 13 7 44 24 WNW 1008,8 35 0,0
09.08.2018 18:00:00 12,5 9,9 20 11 50 27 WNW 1008,2 35 0,0
09.08.2018 17:00:00 12,2 10,3 32 17 56 30 WNW 1007,1 31 0,0
09.08.2018 16:00:00 12,7 10,8 23 12 56 30 WNW 1006,4 46 0,3
09.08.2018 15:00:00 12,7 11,3 37 20 54 29 WNW 1005,2 4,9 1,6
09.08.2018 14:00:00 14,2 12,8 16 9 29 16 WNW 1003,2 12 1,4
09.08.2018 13:00:00 14,3 13,0 11 6 23 13 W 1002,5 5 4,5
09.08.2018 12:00:00 14,8 13,2 4 2 6 3 NNW 1001,1 6 1,5
09.08.2018 11:00:00 15,6 12,2 3 2 9 5 N 1000,2 50 0,0
09.08.2018 10:00:00 15,7 11,7 4 2 12 7 NNO 1000,1 50 0,0
09.08.2018 09:00:00 15,4 11,8 3 2 12 7 NO 1000,5 45 0,0
09.08.2018 08:00:00 15,2 12,7 2 1 11 6 NNO 1000,9 46 0,0
09.08.2018 07:00:00 14,1 12,3 4 2 11 6 WNW 1001,3 45 0,0
09.08.2018 06:00:00 13,9 11,4 4 2 9 5 N 1001,4 50 0,0
09.08.2018 05:00:00 13,2 11,3 3 2 14 8 ZZW 1001,5 50 0,0
09.08.2018 04:00:00 13,5 11,2 6 4 14 8 ZW 1001,8 50 0,0
09.08.2018 03:00:00 13,5 11,0 4 2 16 9 W 1002,4 50 0,0
09.08.2018 02:00:00 14,0 10,8 5 3 16 9 N 1002,9 50 0,1
09.08.2018 01:00:00 14,5 9,1 4 2 14 7 NW 1003,6 50 0,2
09.08.2018 00:00:00 13,7 8,9 3 2 11 6 WNW 1003,9 50 0,0
08.08.2018 23:00:00 14,7 8,6 4 2 10 5 NO 1004,0 50 0,0
08.08.2018 22:00:00 13,0 9,4 0 0 12 7 N 1004,8 45 0,0
08.08.2018 21:00:00 13,9 9,9 0 0 15 8 N 1004,9 50 0,0
08.08.2018 20:00:00 16,2 8,4 9 5 21 11 NO 1005,0 50 0,0
08.08.2018 19:00:00 17,4 8,8 9 5 26 14 ONO 1005,3 50 0,0
08.08.2018 18:00:00 18,3 9,4 13 7 26 14 O 1005,7 44 0,0
08.08.2018 17:00:00 19,2 8,2 9 5 14 8 NNO 1006,1 48 0,0
08.08.2018 16:00:00 19,1 8,1 6 4 14 8 NNW 1006,6 40 0,0
08.08.2018 15:00:00 18,3 8,0 9 5 14 8 NW 1007,0 35 0,0
08.08.2018 14:00:00 17,9 7,9 9 5 14 8 NNW 1007,3 28 0,0
08.08.2018 13:00:00 16,4 7,3 8 4 13 7 NNW 1007,7 45 0,0
08.08.2018 12:00:00 15,3 7,3 4 2 11 6 OZO 1008,0 49 0,0
08.08.2018 11:00:00 14,4 7,4 4 2 16 9 NO 1008,4 50 0,0
08.08.2018 10:00:00 13,5 7,9 5 3 16 9 NNO 1008,5 50 0,0
08.08.2018 09:00:00 11,8 7,7 10 5 14 8 NNW 1008,9 50 0,0
08.08.2018 08:00:00 11,1 7,4 4 2 12 6 NNW 1009,2 50 0,0

tt = temperatuur
td = dauwpunt
ff = windsnelheid
fx = windstoten
dd = windrichting
ppp = luchtdruk
vv = zicht
rr = neerslag

Weerstations in de omgeving